Terminal Aerodrome Forecast
Issued by NWS

Home | Current Version | Previous Version | Text Only | Print | Product List | Glossary On
Versions: 1 2 3 4 5 6 7 8 9 10 11 12 13 14 15 16 17 18 19 20
000
FTUS43 KLSX 220531
TAFCPS
TAF
KCPS 220531Z 2206/2306 06004KT P6SM OVC110
     FM221500 02008KT 6SM -SHRA OVC040
     FM222000 34015G26KT P6SM OVC035
     FM230000 34012KT P6SM OVC110=

USA.gov is the U.S. government's official web portal to all federal, state and local government web resources and services.